Terminal Aerodrome Forecast
Issued by NWS Cleveland, OH

Home | Current Version | Previous Version | Graphics & Text | Print | Product List | Glossary On
Versions: 1 2 3 4 5 6 7 8 9 10 11 12 13 14 15 16 17 18
000
FTUS41 KCLE 021501 AAB
TAFTOL
TAF AMD
KTOL 021501Z 0215/0312 06007KT P6SM OVC015
     FM030100 VRB03KT P6SM OVC035
     FM030800 VRB02KT P6SM SCT250
     FM030900 VRB02KT 6SM BR SKC=

USA.gov is the U.S. government's official web portal to all federal, state and local government web resources and services.